Regional Weather Roundup
Issued by NWS

Home | Current Version | Previous Version | Text Only | Print | Product List | Glossary On
Versions: 1 2 3 4 5 6 7 8 9 10 11 12 13 14 15 16 17 18 19 20 21 22 23 24 25 26 27 28 29 30 31 32 33 34 35 36 37 38 39 40 41 42 43 44 45 46 47 48 49 50
000
ASCA44 KEWX 291520
RWRMX

LATIN AMERICA AND CARIBBEAN REGIONAL WEATHER ROUNDUP
NATIONAL WEATHER SERVICE AUSTIN/SAN ANTONIO TX
1000 AM CDT SAT AUG 29 2015

NOTE: "FAIR" INDICATED FEW OR NO CLOUDS BELOW 12,000 FEET WITH NO
SIGNIFICANT WEATHER AND/OR OBSTRUCTIONS TO VISIBILITY.

BAJA CALIFORNIA

CITY           SKY/WX    TMP DP  RH WIND       PRES   REMARKS
LORETO         MOSUNNY   90  79  70 CALM      29.81  HX 105
LA PAZ         SUNNY     82  73  74 S10       29.87
MEXICALI       SUNNY     88  59  37 SE5       29.79R
S.J. DEL CABO  SUNNY     84  70  61 CALM      29.88
TIJUANA        SUNNY     73  66  78 E3        29.92R

NORTHWESTERN MEXICO

CITY           SKY/WX    TMP DP  RH WIND       PRES   REMARKS
CULIACAN       PTSUNNY   88  77  70 CALM      29.80  HX 100
DURANGO        SUNNY     64  43  45 CALM      30.31R
GUAYMAS        MOSUNNY   91  86  84 CALM      29.79R HX 122
HERMOSILLO     MOSUNNY   91  73  55 N5        29.90R HX 100
CD. JUAREZ     PTSUNNY   75  63  64 E12       30.12R
LOS MOCHIS     PTSUNNY   88  77  70 CALM      29.86  HX 100
OBREGON        PTSUNNY   88  75  66 E8        29.84R HX  97

NORTHEASTERN MEXICO

CITY           SKY/WX    TMP DP  RH WIND       PRES   REMARKS
CHIHUAHUA      PTSUNNY   72  54  53 CALM      30.21R
MATAMOROS      SUNNY     86  75  70 CALM      30.03R HX  95
MONCLOVA         N/A    N/A N/A N/A MISG        N/A
MONTERREY      PTSUNNY   77  66  69 SE5       30.05R
NUEVO LAREDO   SUNNY     82  66  57 SE6       30.02R
PIEDRAS NEGRAS SUNNY     79  68  69 SE6       30.06R
REYNOSA        SUNNY     79  66  65 E8        30.01S
SALTILLO       SUNNY     72  55  56 CALM      30.23R
TORREON        MOSUNNY   77  43  29 CALM      30.16R
CD. VICTORIA   SUNNY     82  68  61 S7        30.02S

WESTERN MEXICO

CITY           SKY/WX    TMP DP  RH WIND       PRES   REMARKS
AGUASCALIENTES SUNNY     64  45  48 CALM      30.34R
COLIMA           N/A    N/A N/A N/A MISG        N/A
DEL BAJIO      SUNNY     64  45  48 CALM      30.36R
GUADALAJARA    SUNNY     66  57  72 CALM      30.23R
MANZANILLO     PTSUNNY   84  77  79 CALM      29.86  HX  94
MAZATLAN       PTSUNNY   81  77  89 N9        29.86R
P. VALLARTA    PTSUNNY   84  79  84 CALM      29.89S HX  96
URUAPAN          N/A    N/A N/A N/A MISG        N/A
ZACATECAS      SUNNY     63  45  51 SW12      30.33S

CENTRAL MEXICO

CITY           SKY/WX    TMP DP  RH WIND       PRES   REMARKS
CUERNAVACA     PTSUNNY   70  66  88 CALM      30.17S FOG
MEXICO CITY    PTSUNNY   61  48  63 CALM      30.38R
MORELIA        SUNNY     63  55  77 CALM      30.28F
POZA RICA      PTSUNNY   75  72  88 CALM      30.03R
PUEBLA         PTSUNNY   63  50  63 N12       30.35S
QUERETARO      PTSUNNY   61  55  82 E6        30.36S
S. LUIS POTOSI SUNNY     63  50  63 CALM      30.32R
TAMPICO        MOSUNNY   84  73  70 NW6       30.00R HX  91
TOLUCA         PTSUNNY   55  48  76 NW3       30.42R HAZE

SOUTHERN MEXICO

CITY           SKY/WX    TMP DP  RH WIND       PRES   REMARKS
ACAPULCO       MOSUNNY   84  73  70 N6        29.85S HX  91
B. DE HUATULCO MOSUNNY   82  63  51 CALM      29.94R
OAXACA         MOSUNNY   70  59  68 NW5       30.24S
P. ESCONDIDO   PTSUNNY  N/A N/A N/A MISG        N/A
VERACRUZ       MOSUNNY   81  75  83 N9        29.98R
ZIHUATANEJO    MOSUNNY   82  73  74 CALM      29.88R

YUCATAN PENINSULA

CITY           SKY/WX    TMP DP  RH WIND       PRES   REMARKS
CAMPECHE       MOSUNNY   81  79  94 E12       29.96S
CANCUN         MOSUNNY   88  79  74 E8        29.98S HX 102
CHETUMAL       MOSUNNY   82  70  65 CALM      29.98R
CD. DEL CARMEN CLOUDY    81  73  78 E10       29.97S
COZUMEL        MOSUNNY   84  77  79 E7        29.99R HX  94
MERIDA         PTSUNNY   84  79  84 NE6       30.00R HX  96
MINATITLAN     PTSUNNY   81  68  65 CALM      29.92R
TAPACHULA      MOSUNNY   88  81  79 CALM      29.88R HX 105
TUX. GUTIERREZ PTSUNNY   79  68  69 N2        29.99R
VILLAHERMOSA   CLOUDY    77  75  94 E8        29.99R

CENTRAL AMERICA

CITY           SKY/WX    TMP DP  RH WIND       PRES   REMARKS
BELIZE CITY    MOSUNNY   84  79  84 N2        29.96R HX  96
MANAGUA        MOSUNNY   86  73  66 E12       29.86S HX  93

CARIBBEAN

CITY           SKY/WX    TMP DP  RH WIND       PRES   REMARKS
ARUBA          MOSUNNY   91  75  59 E21G36    29.89S HX 102
CURACAO        MOSUNNY   90  75  62 E17       29.94S HX 100
KINGSTON       MOSUNNY   88  77  70 SE24      29.94R HX 100
NASSAU         MOSUNNY   90  79  70 E15       30.05R HX 105
SAN JUAN       MOSUNNY   88  75  66 E17       30.06S HX  97
SANTO DOMINGO  PTSUNNY   86  77  74 E14       30.00S HX  97
ST. CROIX      MOSUNNY   90  75  62 E17G26    30.05  HX 100
ST. KITTS      MOSUNNY   88  79  74 E20       30.03S HX 102
ST. MAARTEN    MOSUNNY   88  75  66 E15       30.03S HX  97
ST. THOMAS     PTSUNNY   90  75  62 SE15      30.04  HX 100

$$




USA.gov is the U.S. government's official web portal to all federal, state and local government web resources and services.